Weather observations for the past three days for
Tulsa - Jones Jr. Airport
Imperial (Metric)
Date Time (cdt) Wind (mph) Vis. (mi.) Weather Sky Cond. Temperature (ºF) Relative Humidity Wind Chill (°F) Heat Index (°F) Pressure Precipitation (in)
Air Dwpt 6 hour altimeter (in) sea level (mb) 1 hr 3 hr 6 hr
Max. Min.
13 07:53 S 9 10.00 Fair CLR 79 68 69% 81 30.13 1020.5
13 06:53 S 5 10.00 Fair CLR 75.9 69.1 81 73 79% 77 30.11 1019.8
13 05:53 S 5 10.00 Fair CLR 73.9 69.1 85% 30.09 1019.1
13 04:53 SE 3 10.00 Fair CLR 73.9 68 82% 30.07 1018.6
13 03:53 S 6 10.00 Fair CLR 78.1 68 71% 80 30.06 1017.9
13 02:53 S 6 10.00 Fair CLR 80.1 68 67% 83 30.05 1017.5
13 01:53 S 5 10.00 Fair CLR 80.1 68 67% 83 30.04 1017.5
13 00:53 S 6 10.00 Fair CLR 81 68 93 81 65% 84 30.05 1017.8
12 23:53 S 6 10.00 Fair CLR 82.9 68 61% 86 30.04 1017.5
12 22:53 S 6 10.00 Fair CLR 84 69.1 61% 88 30.04 1017.4
12 21:53 S 7 10.00 Fair CLR 84.9 70 61% 89 30.02 1016.7
12 20:53 S 7 10.00 Fair CLR 88 70 55% 93 30.01 1016.4
12 19:53 S 12 10.00 Fair CLR 91 68 47% 95 30 1016.0
12 18:53 S 13 10.00 Fair CLR 93 66.9 97 91.9 42% 97 29.99 1015.6
12 17:53 S 14 G 25 10.00 Fair CLR 95 62.1 34% 96 29.98 1015.5
12 16:53 S 12 G 22 10.00 Fair CLR 96.1 64 35% 98 30 1015.8
12 15:53 S 15 10.00 Fair CLR 95 66 39% 98 30 1016.1
12 14:53 S 15 G 25 10.00 Fair CLR 96.1 68 40% 101 30.01 1016.4
12 13:53 S 16 10.00 Fair CLR 93.9 66 40% 97 30.02 1016.7
12 12:53 S 16 G 25 10.00 Fair CLR 91.9 68 91.9 75 46% 96 30.04 1017.4
12 11:53 S 20 G 29 10.00 Fair CLR 90 66.9 47% 93 30.05 1017.6
12 10:53 S 16 G 25 10.00 Fair CLR 88 66.9 50% 91 30.06 1018.0
12 09:53 S 13 10.00 Fair CLR 84 66.9 57% 87 30.06 1018.1
12 08:53 S 9 10.00 Fair CLR 81 68 65% 84 30.07 1018.3
12 07:53 SE 6 9.00 Fair CLR 78.1 68 71% 80 30.07 1018.3
12 06:53 E 5 9.00 Partly Cloudy SCT120 75 66.9 82 73 76% 76 30.05 1017.8
12 05:53 Calm 10.00 Fair CLR 73 68 84% 30.02 1016.8
12 04:53 S 3 10.00 Partly Cloudy SCT110 79 66 65% 81 30 1016.1
12 03:53 S 6 10.00 Partly Cloudy SCT110 79 66 65% 81 29.99 1015.5
12 02:53 S 7 10.00 Partly Cloudy SCT110 80.1 66 62% 82 29.97 1015.0
12 01:53 S 6 10.00 Partly Cloudy SCT110 82 66 58% 84 29.98 1015.1
12 00:53 S 6 10.00 Partly Cloudy SCT110 82 66.9 93 82 60% 85 29.98 1015.4
11 23:53 S 10 10.00 Fair CLR 82.9 69.1 63% 87 29.98 1015.4
11 22:53 S 7 10.00 Partly Cloudy SCT110 84 69.1 61% 88 29.98 1015.4
11 21:53 S 8 10.00 Fair CLR 86 69.1 57% 90 29.96 1014.7
11 20:53 S 7 10.00 Fair CLR 88 66.9 50% 91 29.95 1014.4
11 19:53 S 12 G 23 10.00 Fair CLR 91 66.9 45% 94 29.94 1014.1
11 18:53 S 14 G 20 10.00 Fair CLR 93 66.9 96.1 91 42% 97 29.95 1014.2
11 17:53 S 13 10.00 Fair CLR 93.9 69.1 44% 99 29.95 1014.4
11 16:53 SE 12 10.00 Fair CLR 93.9 69.1 44% 99 29.96 1014.6
11 15:53 S 13 G 22 10.00 Fair CLR 95 66.9 40% 99 29.97 1014.9
11 14:53 S 12 10.00 A Few Clouds FEW110 95 66.9 40% 99 29.98 1015.4
11 13:53 SW 12 10.00 Fair CLR 93 68 44% 97 29.99 1015.8
11 12:53 S 10 10.00 Partly Cloudy SCT110 91 66.9 91.9 72 45% 94 30.01 1016.5
11 11:53 SE 8 10.00 Mostly Cloudy BKN110 87.1 69.1 55% 91 30.02 1016.8
11 10:53 S 12 10.00 A Few Clouds FEW110 88 69.1 54% 92 30.02 1016.7
11 09:53 S 10 10.00 Fair CLR 86 69.1 57% 90 30.01 1016.6
11 08:53 S 7 10.00 Fair CLR 80.1 68 67% 83 30.02 1016.8
11 06:53 Calm 8.00 Mostly Cloudy BKN100 72 66.9 73 69.1 84% 30.01 1016.5
11 05:53 Calm 9.00 Fair CLR 69.1 66 90% 30 1016.1
11 04:53 Calm 10.00 Fair CLR 70 66 87% 30 1016.1
11 03:53 Calm 10.00 Fair CLR 71.1 66 84% 29.99 1015.8
11 02:53 SW 3 10.00 Fair CLR 71.1 66 84% 30 1016.0
11 01:53 Calm 10.00 Fair CLR 72 68 87% 29.99 1015.9
11 00:53 Calm 10.00 Fair CLR 73 68 91 73 84% 30 1016.1
10 23:53 Calm 10.00 Fair CLR 73.9 69.1 85% 30.01 1016.6
10 22:53 Calm 10.00 Fair CLR 75.9 69.1 79% 77 30.02 1016.8
10 21:53 Calm 10.00 Fair CLR 78.1 69.1 74% 80 30 1016.1
10 20:53 S 6 10.00 Fair CLR 87.1 66 50% 89 29.99 1015.7
10 19:53 S 6 10.00 Fair CLR 90 63 41% 91 29.97 1015.0
10 18:53 S 8 10.00 Fair CLR 91 63 95 88 39% 92 29.95 1014.5
10 17:53 SE 9 G 18 10.00 Partly Cloudy SCT070 91 64.9 42% 93 29.95 1014.5
10 16:53 Vrbl 3 10.00 Fair CLR 93 60.1 33% 93 29.97 1015.1
10 15:53 N 6 10.00 Fair CLR 93.9 59 31% 93 29.99 1015.6
10 14:53 Calm 10.00 Fair CLR 93 60.1 33% 93 30 1016.1
10 13:53 Calm 10.00 Fair CLR 91.9 62.1 37% 93 30.01 1016.5
10 12:53 Vrbl 6 10.00 A Few Clouds FEW050 90 66.9 91 68 47% 93 30.02 1017.0
10 11:53 Calm 10.00 Fair CLR 87.1 64.9 48% 89 30.04 1017.3
10 10:53 Calm 10.00 Fair CLR 86 68 55% 89 30.04 1017.5
10 09:53 Vrbl 3 10.00 Fair CLR 82 66.9 60% 85 30.04 1017.6
10 08:53 Calm 10.00 Fair CLR 77 66 69% 79 30.04 1017.7
Date Time (cdt) Wind (mph) Vis. (mi.) Weather Sky Cond. Air Dwpt Max. Min. Relative Humidity Wind Chill (°F) Heat Index (°F) altimeter (in) sea level (mb) 1 hr 3 hr 6 hr
6 hour
Temperature (ºF) Pressure Precipitation (in)